[Date Prev][Date Next][Thread Prev][Thread Next] - [Date Index][Thread Index][Author Index]

MIR & ISS Keps 2-26



MIR
1 16609U 86017A   99057.54141961  .00025205  00000-0  19606-3 0  2616
2 16609  51.6573 190.9025 0012591 175.5687 184.5465 15.71492932743992


ISS
1 25544U 98067A   99057.55480846  .00006296  00000-0  88944-4 0  3488
2 25544  51.5934  34.6250 0004630 154.1339 205.9693 15.57991538 15337

----
Via the sarex mailing list at AMSAT.ORG courtesy of AMSAT-NA.
To unsubscribe, send "unsubscribe sarex" to Majordomo@amsat.org



AMSAT Top AMSAT Home